Flag for Mexico Weather past 2 weeks in Merida, Yucatán, Mexico

86 °F

Partly sunny.

Feels Like: 95 °F
Forecast: N/A
Wind: 7 mph from Northeast

Location: Aerop. Internacional Merida - Yuc

Current Time: Oct 9, 2015 at 6:59:34 PM

Latest Report: Oct 9, 2015 at 5:53 PM

Visibility: 7 mi

Pressure: 29.92 "Hg

Humidity: 70%

Dew point: 75 °F

Location of MeridaLocation

Historic Weather in Merida — Graph


Merida temperature yesterday

Maximum temperature yesterday: 91 °F (at 2:45 PM)
Minimum temperature yesterday: 72 °F (at 5:49 AM)
Average temperature yesterday: 81 °F

Past Weeks' High & Low Weather Summary

High95 °F (Oct 9, 2:53 PM)100% (Sep 25, 5:45 AM)30.01 "Hg (Sep 25, 5:45 AM)
Low34 °F (Sep 25, 5:15 PM)44% (Oct 9, 3:47 PM)29.72 "Hg (Oct 2, 4:56 AM)
Average79 °F79%29.86 "Hg
* Reported Sep 24 5:53 PM — Oct 9 5:53 PM, Merida, Weather by CustomWeather, © 2015

Note: Actual official high and low records may vary slightly from our data, if they occured in-between our weather recording intervals... More about our weather records


Merida weather history for previous 24 hours

Time TempWeatherWind HumidityBarometerVisibility
5:53 PM
Fri, Oct 9
86 °FPartly sunny.7 mph70%29.92 "Hg7 mi
4:50 PM86 °FPartly sunny.8 mph70%29.91 "Hg7 mi
3:47 PM95 °FPartly sunny.9 mph44%30.01 "Hg7 mi
2:53 PM95 °FPartly sunny.9 mph50%29.91 "Hg7 mi
1:46 PM93 °FPartly sunny.5 mph53%29.94 "Hg7 mi
12:50 PM90 °FPartly sunny.No wind63%29.96 "Hg7 mi
11:47 AM90 °FScattered clouds.5 mph59%29.99 "Hg7 mi
9:44 AM86 °FScattered clouds.6 mph75%29.97 "Hg7 mi
8:48 AM82 °FScattered clouds.No wind79%29.99 "Hg7 mi
7:47 AM81 °FPassing clouds.7 mph84%29.97 "Hg7 mi
6:48 AM77 °FPassing clouds.No wind94%29.96 "Hg7 mi
5:47 AM77 °FPassing clouds.5 mph94%29.95 "Hg6 mi
3:46 AM77 °FPassing clouds.3 mph94%29.95 "Hg7 mi
2:44 AM77 °FPassing clouds.6 mph89%29.92 "Hg7 mi
1:45 AM79 °FPassing clouds.6 mph84%29.94 "Hg7 mi
12:49 AM79 °FPassing clouds.6 mph84%29.96 "Hg7 mi
10:46 PM
Thu, Oct 8
82 °FPassing clouds.10 mph79%29.97 "Hg7 mi
8:45 PM82 °FPassing clouds.12 mph70%29.93 "Hg7 mi
Weather by CustomWeather, © 2015

See weather overviewHow to use our weather pages